Orbital Elements at Epoch 2459200.5 (2020-Dec-17.0) TDB
Reference: JPL 16 (heliocentric ecliptic J2000)
Element | Value | Uncertainty (1-sigma) | Units |
e | .2066007797302565 | 4.4002e-08 | |
a | 2.626486698798868 | 1.3807e-08 | au |
q | 2.083852498875874 | 1.0985e-07 | au |
i | 5.367286713168641 | 3.6608e-06 | deg |
node | 191.0451231537186 | 4.7888e-05 | deg |
peri | 24.96378885333365 | 5.0085e-05 | deg |
M | 66.75095981163582 | 1.153e-05 | deg |
tp | 2458912.218847550906 (2020-Mar-03.71884755) | 5.0345e-05 | TDB |
period | 1554.752398685106 4.26 | 1.226e-05 3.357e-08 | d yr |
n | .2315481232281495 | 1.8258e-09 | deg/d |
Q | 3.169120898721861 | 1.666e-08 | au |
|
| | Orbit Determination Parameters
Additional Information
|